Location: Dover
(48.8500°N, 53.9833°W)
Time: 15:46:51
(UTC+00:00)

ARIANE 5 R/B - Pass Details

Date: 14 November 2025
Orbit: 747 x 792 km, 98.8° (Epoch: 12 December)

Event Time Altitude Azimuth Distance (km) Brightness Sun altitude
Rises 21:47:42 0° 188° (S) 3,180 5.9 -18.2°
Reaches altitude 10° 21:50:10 10° 197° (SSW) 2,260 5.2 -18.6°
Maximum altitude 21:54:42 35° 263° (W) 1,196 4.1 -19.4°
Drops below altitude 10° 21:59:16 10° 329° (NNW) 2,279 5.3 -20.1°
Sets 22:01:46 0° 339° (NNW) 3,213 5.9 -20.5°
